Time,TemperatureF,DewpointF,PressureIn,WindDirection,WindDirectionDegrees,WindSpeedMPH,WindSpeedGustMPH,Humidity,HourlyPrecipIn,Conditions,Clouds,dailyrainin,SoftwareType,DateUTC
2013-06-06 00:00:00,69.1,68.2,29.89,SSE,166,0.0,2.0,97,0.01,,OVC055,1.04,VWS V14.01,2013-06-06 04:00:00,
2013-06-06 00:01:00,69.1,68.2,29.89,East,84,5.0,5.0,97,0.01,,OVC055,1.04,VWS V14.01,2013-06-06 04:01:00,
2013-06-06 00:06:00,69.1,68.2,29.89,East,84,2.0,2.0,97,0.01,,OVC055,0.00,VWS V14.01,2013-06-06 04:06:00,
2013-06-06 00:11:00,69.1,68.2,29.89,ESE,122,2.0,2.0,97,0.01,,OVC055,0.00,VWS V14.01,2013-06-06 04:11:00,
2013-06-06 00:16:00,69.1,68.2,29.88,ESE,115,0.0,5.0,97,0.01,,OVC055,0.00,VWS V14.01,2013-06-06 04:16:00,
2013-06-06 00:21:00,69.1,68.2,29.88,SSW,200,0.0,3.0,97,0.01,,OVC055,0.00,VWS V14.01,2013-06-06 04:21:00,
2013-06-06 00:26:00,69.1,68.2,29.88,SSW,197,0.0,2.0,97,0.01,,OVC055,0.00,VWS V14.01,2013-06-06 04:26:00,
2013-06-06 00:32:00,69.1,68.2,29.88,South,170,0.0,3.0,97,0.00,,OVC055,0.00,VWS V14.01,2013-06-06 04:32:00,
2013-06-06 00:37:00,69.2,68.3,29.88,SW,219,0.0,0.0,97,0.00,,OVC055,0.00,VWS V14.01,2013-06-06 04:37:00,
2013-06-06 00:41:00,69.2,68.3,29.89,ENE,74,0.0,2.0,97,0.00,,OVC055,0.00,VWS V14.01,2013-06-06 04:41:00,
2013-06-06 00:47:00,69.2,68.3,29.89,East,87,2.0,2.0,97,0.00,,OVC055,0.00,VWS V14.01,2013-06-06 04:47:00,
2013-06-06 00:52:00,69.2,68.3,29.89,ESE,103,1.0,4.0,97,0.00,,OVC055,0.00,VWS V14.01,2013-06-06 04:52:00,
2013-06-06 00:57:00,69.3,68.4,29.89,ENE,65,6.0,6.0,97,0.00,,OVC055,0.00,VWS V14.01,2013-06-06 04:57:00,
2013-06-06 01:02:00,69.3,68.4,29.89,East,79,3.0,4.0,97,0.00,,OVC055,0.00,VWS V14.01,2013-06-06 05:02:00,
2013-06-06 01:07:00,69.4,68.5,29.89,East,80,0.0,1.0,97,0.00,,OVC055,0.00,VWS V14.01,2013-06-06 05:07:00,
2013-06-06 01:12:00,69.4,68.5,29.89,East,89,0.0,0.0,97,0.00,,OVC055,0.00,VWS V14.01,2013-06-06 05:12:00,
2013-06-06 01:17:00,69.4,68.5,29.89,ENE,65,0.0,0.0,97,0.00,,OVC055,0.00,VWS V14.01,2013-06-06 05:17:00,
2013-06-06 01:22:00,69.5,68.6,29.89,NNE,29,3.0,4.0,97,0.00,,OVC055,0.00,VWS V14.01,2013-06-06 05:22:00,
2013-06-06 01:27:00,69.5,68.6,29.89,East,80,0.0,0.0,97,0.00,,OVC055,0.00,VWS V14.01,2013-06-06 05:27:00,
2013-06-06 01:32:00,69.5,68.6,29.89,NNE,22,0.0,0.0,97,0.00,,OVC055,0.00,VWS V14.01,2013-06-06 05:32:00,
2013-06-06 01:37:00,69.5,68.6,29.88,East,88,2.0,3.0,97,0.00,,OVC055,0.00,VWS V14.01,2013-06-06 05:37:00,
2013-06-06 01:42:00,69.4,68.5,29.88,ESE,119,0.0,0.0,97,0.00,,OVC055,0.00,VWS V14.01,2013-06-06 05:42:00,
2013-06-06 01:47:00,69.4,68.5,29.88,NE,35,0.0,1.0,97,0.00,,OVC055,0.00,VWS V14.01,2013-06-06 05:47:00,
2013-06-06 01:52:00,69.4,68.5,29.88,ENE,77,0.0,0.0,97,0.00,,OVC055,0.00,VWS V14.01,2013-06-06 05:52:00,
2013-06-06 01:57:00,69.5,68.6,29.87,NNE,27,0.0,2.0,97,0.00,,OVC055,0.00,VWS V14.01,2013-06-06 05:57:00,
2013-06-06 02:02:00,69.5,68.6,29.87,ESE,114,0.0,0.0,97,0.00,,OVC055,0.00,VWS V14.01,2013-06-06 06:02:00,
2013-06-06 02:07:00,69.5,68.6,29.87,ENE,69,1.0,3.0,97,0.00,,OVC055,0.00,VWS V14.01,2013-06-06 06:07:00,
2013-06-06 02:12:00,69.6,68.7,29.86,East,96,1.0,2.0,97,0.00,,OVC055,0.00,VWS V14.01,2013-06-06 06:12:00,
2013-06-06 02:17:00,69.6,68.7,29.86,East,96,1.0,1.0,97,0.00,,OVC055,0.00,VWS V14.01,2013-06-06 06:17:00,
2013-06-06 02:22:00,69.6,68.7,29.86,East,91,0.0,0.0,97,0.00,,OVC055,0.00,VWS V14.01,2013-06-06 06:22:00,
2013-06-06 02:27:00,69.7,68.8,29.86,ENE,65,1.0,2.0,97,0.00,,OVC055,0.00,VWS V14.01,2013-06-06 06:27:00,
2013-06-06 02:32:00,69.7,68.8,29.86,East,95,1.0,1.0,97,0.00,,OVC055,0.00,VWS V14.01,2013-06-06 06:32:00,
2013-06-06 02:37:00,69.7,68.8,29.86,East,89,3.0,3.0,97,0.00,,OVC055,0.00,VWS V14.01,2013-06-06 06:37:00,
2013-06-06 02:42:00,69.7,68.8,29.86,ENE,61,0.0,0.0,97,0.00,,OVC055,0.00,VWS V14.01,2013-06-06 06:42:00,
2013-06-06 02:47:00,69.7,68.8,29.85,ESE,105,0.0,0.0,97,0.00,,OVC055,0.00,VWS V14.01,2013-06-06 06:47:00,
2013-06-06 02:52:00,69.7,68.8,29.85,East,94,0.0,0.0,97,0.00,,OVC055,0.00,VWS V14.01,2013-06-06 06:52:00,
2013-06-06 02:57:00,69.7,68.8,29.85,ESE,119,1.0,1.0,97,0.00,,OVC055,0.00,VWS V14.01,2013-06-06 06:57:00,
2013-06-06 03:02:00,69.6,68.7,29.85,ESE,122,1.0,1.0,97,0.00,,OVC055,0.00,VWS V14.01,2013-06-06 07:02:00,
2013-06-06 03:07:00,69.6,68.7,29.85,SE,131,0.0,1.0,97,0.00,,OVC055,0.00,VWS V14.01,2013-06-06 07:07:00,
2013-06-06 03:12:00,69.6,68.7,29.85,East,99,0.0,0.0,97,0.00,,OVC055,0.00,VWS V14.01,2013-06-06 07:12:00,
2013-06-06 03:17:00,69.7,68.8,29.85,ESE,107,2.0,2.0,97,0.00,,OVC055,0.00,VWS V14.01,2013-06-06 07:17:00,
2013-06-06 03:22:00,69.6,68.7,29.84,East,101,1.0,2.0,97,0.00,,OVC055,0.00,VWS V14.01,2013-06-06 07:22:00,
2013-06-06 03:27:00,69.6,68.7,29.84,East,101,1.0,1.0,97,0.00,,OVC055,0.00,VWS V14.01,2013-06-06 07:27:00,
2013-06-06 03:32:00,69.6,68.7,29.84,East,101,0.0,0.0,97,0.00,,OVC055,0.00,VWS V14.01,2013-06-06 07:32:00,
2013-06-06 03:37:00,69.5,68.6,29.83,ESE,105,0.0,0.0,97,0.00,,OVC055,0.00,VWS V14.01,2013-06-06 07:37:00,
2013-06-06 03:42:00,69.4,68.5,29.83,East,101,2.0,2.0,97,0.00,,OVC055,0.00,VWS V14.01,2013-06-06 07:42:00,
2013-06-06 03:47:00,69.4,68.5,29.83,ESE,103,0.0,2.0,97,0.00,,OVC055,0.00,VWS V14.01,2013-06-06 07:47:00,
2013-06-06 03:52:00,69.3,68.4,29.83,SE,124,0.0,0.0,97,0.00,,OVC055,0.00,VWS V14.01,2013-06-06 07:52:00,
2013-06-06 03:57:00,69.2,68.3,29.83,SE,129,0.0,0.0,97,0.00,,OVC055,0.00,VWS V14.01,2013-06-06 07:57:00,
2013-06-06 04:02:00,69.1,68.2,29.83,East,97,0.0,1.0,97,0.00,,OVC055,0.00,VWS V14.01,2013-06-06 08:02:00,
2013-06-06 04:07:00,69.1,68.2,29.82,ESE,110,0.0,0.0,97,0.00,,OVC055,0.00,VWS V14.01,2013-06-06 08:07:00,
2013-06-06 04:12:00,68.5,67.6,29.83,ESE,108,0.0,0.0,97,0.00,,OVC055,0.00,VWS V14.01,2013-06-06 08:12:00,
2013-06-06 04:17:00,68.5,67.6,29.83,ESE,108,0.0,0.0,97,0.00,,OVC055,0.00,VWS V14.01,2013-06-06 08:17:00,
2013-06-06 04:22:00,68.5,67.6,29.83,ESE,108,0.0,0.0,97,0.00,,OVC055,0.00,VWS V14.01,2013-06-06 08:22:00,
2013-06-06 04:27:00,68.5,67.6,29.83,ESE,108,0.0,0.0,97,0.00,,OVC055,0.00,VWS V14.01,2013-06-06 08:27:00,
2013-06-06 04:32:00,68.5,67.6,29.83,ESE,108,0.0,0.0,97,0.00,,OVC055,0.00,VWS V14.01,2013-06-06 08:32:00,
2013-06-06 04:37:00,68.5,67.6,29.83,ESE,108,0.0,0.0,97,0.00,,OVC055,0.00,VWS V14.01,2013-06-06 08:37:00,
2013-06-06 04:42:00,68.5,67.6,29.83,ESE,108,0.0,0.0,97,0.00,,OVC055,0.00,VWS V14.01,2013-06-06 08:42:00,
2013-06-06 04:47:00,68.5,67.6,29.83,ESE,108,0.0,0.0,97,0.00,,OVC055,0.00,VWS V14.01,2013-06-06 08:47:00,
2013-06-06 04:52:00,68.5,67.6,29.84,ESE,108,0.0,0.0,97,0.00,,OVC055,0.00,VWS V14.01,2013-06-06 08:52:00,
2013-06-06 04:57:00,68.5,67.6,29.84,ESE,108,0.0,0.0,97,0.00,,OVC055,0.00,VWS V14.01,2013-06-06 08:57:00,
2013-06-06 05:02:00,68.5,67.6,29.83,ESE,108,0.0,0.0,97,0.00,,OVC055,0.00,VWS V14.01,2013-06-06 09:02:00,
2013-06-06 05:07:00,68.5,67.6,29.83,ESE,108,0.0,0.0,97,0.00,,OVC055,0.00,VWS V14.01,2013-06-06 09:07:00,
2013-06-06 05:12:00,68.5,67.6,29.83,ESE,108,0.0,0.0,97,0.00,,OVC055,0.00,VWS V14.01,2013-06-06 09:12:00,
2013-06-06 05:17:00,68.5,67.6,29.83,ESE,108,0.0,0.0,97,0.00,,OVC055,0.00,VWS V14.01,2013-06-06 09:17:00,
2013-06-06 05:22:00,68.5,67.6,29.83,ESE,108,0.0,0.0,97,0.00,,OVC055,0.00,VWS V14.01,2013-06-06 09:22:00,
2013-06-06 05:27:00,68.5,67.6,29.83,ESE,108,0.0,0.0,97,0.00,,OVC055,0.00,VWS V14.01,2013-06-06 09:27:00,
2013-06-06 05:32:00,68.5,67.6,29.83,ESE,108,0.0,0.0,97,0.00,,OVC055,0.00,VWS V14.01,2013-06-06 09:32:00,
2013-06-06 05:37:00,68.5,67.6,29.83,ESE,108,0.0,0.0,97,0.00,,OVC055,0.00,VWS V14.01,2013-06-06 09:37:00,
2013-06-06 05:42:00,68.5,67.6,29.83,ESE,108,0.0,0.0,97,0.00,,OVC055,0.00,VWS V14.01,2013-06-06 09:42:00,
2013-06-06 05:47:00,68.5,67.6,29.83,ESE,108,0.0,0.0,97,0.00,,OVC055,0.00,VWS V14.01,2013-06-06 09:47:00,
2013-06-06 05:52:00,68.5,67.6,29.83,ESE,108,0.0,0.0,97,0.00,,OVC055,0.00,VWS V14.01,2013-06-06 09:52:00,
2013-06-06 05:57:00,68.5,67.6,29.83,ESE,108,0.0,0.0,97,0.00,,OVC055,0.00,VWS V14.01,2013-06-06 09:57:00,
2013-06-06 06:02:00,68.5,67.6,29.83,ESE,108,0.0,0.0,97,0.00,,OVC055,0.00,VWS V14.01,2013-06-06 10:02:00,
2013-06-06 06:07:00,68.5,67.6,29.83,ESE,108,0.0,0.0,97,0.00,,OVC055,0.00,VWS V14.01,2013-06-06 10:07:00,
2013-06-06 06:12:00,68.5,67.6,29.83,ESE,108,0.0,0.0,97,0.00,,OVC055,0.00,VWS V14.01,2013-06-06 10:12:00,
2013-06-06 06:17:00,68.5,67.6,29.83,ESE,108,0.0,0.0,97,0.00,,OVC055,0.00,VWS V14.01,2013-06-06 10:17:00,
2013-06-06 06:22:00,68.5,67.6,29.83,ESE,108,0.0,0.0,97,0.00,,OVC055,0.00,VWS V14.01,2013-06-06 10:22:00,
2013-06-06 06:27:00,68.5,67.6,29.83,ESE,108,0.0,0.0,97,0.00,,OVC055,0.00,VWS V14.01,2013-06-06 10:27:00,
2013-06-06 06:32:00,68.5,67.6,29.83,ESE,108,0.0,0.0,97,0.00,,OVC055,0.00,VWS V14.01,2013-06-06 10:32:00,
2013-06-06 06:37:00,68.5,67.6,29.83,ESE,108,0.0,0.0,97,0.00,,OVC055,0.00,VWS V14.01,2013-06-06 10:37:00,
2013-06-06 06:42:00,68.5,67.6,29.83,ESE,108,0.0,0.0,97,0.00,,OVC055,0.00,VWS V14.01,2013-06-06 10:42:00,
2013-06-06 06:47:00,68.5,67.6,29.84,ESE,108,0.0,0.0,97,0.00,,OVC055,0.00,VWS V14.01,2013-06-06 10:47:00,
2013-06-06 06:52:00,68.5,67.6,29.84,ESE,108,0.0,0.0,97,0.00,,OVC055,0.00,VWS V14.01,2013-06-06 10:52:00,
2013-06-06 06:57:00,68.5,67.6,29.84,ESE,108,0.0,0.0,97,0.00,,OVC055,0.00,VWS V14.01,2013-06-06 10:57:00,
2013-06-06 07:02:00,68.5,67.6,29.84,ESE,108,0.0,0.0,97,0.00,,OVC055,0.00,VWS V14.01,2013-06-06 11:02:00,
2013-06-06 07:07:00,68.5,67.6,29.84,ESE,108,0.0,0.0,97,0.00,,,0.00,VWS V14.01,2013-06-06 11:07:00,
2013-06-06 07:12:00,68.5,67.6,29.84,ESE,108,0.0,0.0,97,0.00,,,0.00,VWS V14.01,2013-06-06 11:12:00,
2013-06-06 07:17:00,68.5,67.6,29.85,ESE,108,0.0,0.0,97,0.00,,,0.00,VWS V14.01,2013-06-06 11:17:00,
2013-06-06 07:22:00,68.5,67.6,29.85,ESE,108,0.0,0.0,97,0.00,,,0.00,VWS V14.01,2013-06-06 11:22:00,
2013-06-06 07:33:00,0.0,0.0,29.85,North,0,0.0,0.0,0,0.00,,,0.00,VWS V14.01,2013-06-06 11:33:00,
2013-06-06 07:38:00,0.0,0.0,29.84,North,0,0.0,0.0,0,0.00,,,0.00,VWS V14.01,2013-06-06 11:38:00,
2013-06-06 07:43:00,0.0,0.0,29.84,North,0,0.0,0.0,0,0.00,,,0.00,VWS V14.01,2013-06-06 11:43:00,
2013-06-06 07:48:00,0.0,0.0,29.85,North,0,0.0,0.0,0,0.00,,,0.00,VWS V14.01,2013-06-06 11:48:00,
2013-06-06 07:53:00,0.0,0.0,29.85,North,0,0.0,0.0,0,0.00,,,0.00,VWS V14.01,2013-06-06 11:53:00,
2013-06-06 07:58:00,67.9,67.3,29.85,East,85,4.0,5.0,98,0.00,,,0.00,VWS V14.01,2013-06-06 11:58:00,
2013-06-06 08:03:00,68.0,67.4,29.85,SW,225,0.0,0.0,98,0.00,,,0.00,VWS V14.01,2013-06-06 12:03:00,
2013-06-06 08:08:00,68.0,67.4,29.85,East,89,0.0,0.0,98,0.00,,,0.00,VWS V14.01,2013-06-06 12:08:00,
2013-06-06 08:13:00,68.0,67.4,29.85,East,89,0.0,1.0,98,0.00,,,0.00,VWS V14.01,2013-06-06 12:13:00,
2013-06-06 08:18:00,67.9,67.0,29.85,NE,52,0.0,1.0,97,0.00,,,0.00,VWS V14.01,2013-06-06 12:18:00,
2013-06-06 08:23:00,67.9,67.3,29.85,East,79,0.0,0.0,98,0.00,,,0.00,VWS V14.01,2013-06-06 12:23:00,
2013-06-06 08:28:00,67.9,67.3,29.85,East,93,0.0,1.0,98,0.00,,,0.00,VWS V14.01,2013-06-06 12:28:00,
2013-06-06 08:33:00,67.9,67.3,29.85,East,93,0.0,1.0,98,0.00,,,0.00,VWS V14.01,2013-06-06 12:33:00,
2013-06-06 08:38:00,68.0,67.4,29.85,East,95,0.0,0.0,98,0.00,,,0.00,VWS V14.01,2013-06-06 12:38:00,
2013-06-06 08:43:00,68.1,67.5,29.85,East,95,0.0,1.0,98,0.00,,,0.00,VWS V14.01,2013-06-06 12:43:00,
2013-06-06 08:48:00,68.3,67.7,29.84,East,93,0.0,2.0,98,0.00,,,0.00,VWS V14.01,2013-06-06 12:48:00,
2013-06-06 08:53:00,68.4,67.8,29.84,ESE,105,2.0,2.0,98,0.00,,,0.00,VWS V14.01,2013-06-06 12:53:00,
2013-06-06 08:58:00,68.5,67.9,29.84,East,91,0.0,0.0,98,0.00,,,0.00,VWS V14.01,2013-06-06 12:58:00,
2013-06-06 09:03:00,68.8,68.2,29.84,ESE,120,0.0,0.0,98,0.00,,,0.00,VWS V14.01,2013-06-06 13:03:00,
2013-06-06 09:08:00,69.0,68.4,29.84,ESE,107,0.0,1.0,98,0.00,,,0.00,VWS V14.01,2013-06-06 13:08:00,
2013-06-06 09:13:00,69.1,68.5,29.84,ESE,108,0.0,0.0,98,0.00,,,0.00,VWS V14.01,2013-06-06 13:13:00,
2013-06-06 09:18:00,69.1,68.2,29.84,WSW,240,0.0,1.0,97,0.00,,,0.00,VWS V14.01,2013-06-06 13:18:00,
2013-06-06 09:23:00,69.2,68.3,29.85,SE,146,0.0,1.0,97,0.00,,,0.00,VWS V14.01,2013-06-06 13:23:00,
2013-06-06 09:28:00,69.4,68.8,29.85,SE,146,1.0,1.0,98,0.00,,,0.00,VWS V14.01,2013-06-06 13:28:00,
2013-06-06 09:33:00,69.4,68.5,29.85,SSW,194,0.0,1.0,97,0.00,,,0.00,VWS V14.01,2013-06-06 13:33:00,
2013-06-06 09:38:00,69.4,68.5,29.85,SSW,194,0.0,0.0,97,0.00,,,0.00,VWS V14.01,2013-06-06 13:38:00,
2013-06-06 09:43:00,69.3,68.4,29.85,ESE,105,1.0,2.0,97,0.00,,,0.00,VWS V14.01,2013-06-06 13:43:00,
2013-06-06 09:48:00,69.5,68.6,29.85,ENE,71,0.0,0.0,97,0.00,,,0.00,VWS V14.01,2013-06-06 13:48:00,
2013-06-06 09:53:00,70.0,69.1,29.84,East,84,0.0,2.0,97,0.00,,,0.00,VWS V14.01,2013-06-06 13:53:00,
2013-06-06 09:58:00,70.0,69.1,29.84,East,92,0.0,3.0,97,0.00,,,0.00,VWS V14.01,2013-06-06 13:58:00,
2013-06-06 10:03:00,70.1,68.9,29.84,South,181,1.0,1.0,96,0.00,,,0.00,VWS V14.01,2013-06-06 14:03:00,
2013-06-06 10:08:00,70.3,69.1,29.84,NNE,13,0.0,0.0,96,0.00,,,0.00,VWS V14.01,2013-06-06 14:08:00,
2013-06-06 10:13:00,70.8,69.9,29.84,WSW,255,0.0,0.0,97,0.00,,,0.00,VWS V14.01,2013-06-06 14:13:00,
2013-06-06 10:18:00,70.9,69.4,29.84,East,82,0.0,0.0,95,0.00,,,0.00,VWS V14.01,2013-06-06 14:18:00,
2013-06-06 10:23:00,71.1,69.6,29.84,East,82,0.0,0.0,95,0.00,,,0.00,VWS V14.01,2013-06-06 14:23:00,
2013-06-06 10:28:00,71.1,69.3,29.85,NE,50,0.0,2.0,94,0.00,,,0.00,VWS V14.01,2013-06-06 14:28:00,
2013-06-06 10:33:00,71.2,69.7,29.85,East,95,1.0,2.0,95,0.00,,,0.00,VWS V14.01,2013-06-06 14:33:00,
2013-06-06 10:38:00,71.2,69.4,29.85,East,101,0.0,0.0,94,0.00,,,0.00,VWS V14.01,2013-06-06 14:38:00,
2013-06-06 10:43:00,71.2,69.4,29.85,East,100,0.0,0.0,94,0.00,,,0.00,VWS V14.01,2013-06-06 14:43:00,
2013-06-06 10:48:00,71.2,69.4,29.85,East,101,0.0,1.0,94,0.00,,,0.00,VWS V14.01,2013-06-06 14:48:00,
2013-06-06 10:53:00,71.4,69.9,29.85,East,101,0.0,0.0,95,0.00,,,0.00,VWS V14.01,2013-06-06 14:53:00,
2013-06-06 10:58:00,71.5,69.7,29.86,East,100,0.0,0.0,94,0.00,,,0.00,VWS V14.01,2013-06-06 14:58:00,
2013-06-06 11:03:00,71.6,69.8,29.86,East,101,0.0,0.0,94,0.00,,,0.00,VWS V14.01,2013-06-06 15:03:00,
2013-06-06 11:08:00,71.7,69.6,29.86,East,101,0.0,0.0,93,0.00,,,0.00,VWS V14.01,2013-06-06 15:08:00,
2013-06-06 11:13:00,71.8,70.0,29.86,East,101,0.0,0.0,94,0.00,,,0.00,VWS V14.01,2013-06-06 15:13:00,
2013-06-06 11:18:00,72.0,69.9,29.86,East,101,0.0,0.0,93,0.00,,,0.00,VWS V14.01,2013-06-06 15:18:00,
2013-06-06 11:23:00,72.2,70.4,29.86,East,100,0.0,0.0,94,0.00,,,0.00,VWS V14.01,2013-06-06 15:23:00,
2013-06-06 11:28:00,72.7,70.6,29.86,East,101,0.0,0.0,93,0.00,,,0.00,VWS V14.01,2013-06-06 15:28:00,
2013-06-06 11:33:00,72.9,70.1,29.85,East,83,0.0,1.0,91,0.00,,,0.00,VWS V14.01,2013-06-06 15:33:00,
2013-06-06 11:38:00,73.1,70.6,29.85,SW,219,0.0,1.0,92,0.00,,,0.00,VWS V14.01,2013-06-06 15:38:00,
2013-06-06 11:43:00,73.6,71.1,29.85,SW,217,0.0,0.0,92,0.00,,,0.00,VWS V14.01,2013-06-06 15:43:00,
2013-06-06 11:48:00,73.8,70.7,29.85,SE,131,1.0,1.0,90,0.00,,,0.00,VWS V14.01,2013-06-06 15:48:00,
2013-06-06 11:53:00,74.4,71.3,29.84,SE,131,0.0,1.0,90,0.00,,,0.00,VWS V14.01,2013-06-06 15:53:00,
2013-06-06 11:58:00,75.1,71.0,29.85,WSW,239,0.0,1.0,87,0.00,,,0.00,VWS V14.01,2013-06-06 15:58:00,
2013-06-06 12:03:00,75.5,71.0,29.85,SW,214,1.0,2.0,86,0.00,,,0.00,VWS V14.01,2013-06-06 16:03:00,
2013-06-06 12:08:00,76.0,71.2,29.84,SW,222,0.0,1.0,85,0.00,,BKN038,0.00,VWS V14.01,2013-06-06 16:08:00,
2013-06-06 12:13:00,76.3,71.5,29.84,East,96,0.0,0.0,85,0.00,,BKN038,0.00,VWS V14.01,2013-06-06 16:13:00,
2013-06-06 12:18:00,77.1,71.9,29.84,East,96,0.0,0.0,84,0.00,,BKN038,0.00,VWS V14.01,2013-06-06 16:18:00,
2013-06-06 12:23:00,77.8,72.2,29.83,East,93,1.0,1.0,83,0.00,,BKN038,0.00,VWS V14.01,2013-06-06 16:23:00,
2013-06-06 12:28:00,78.2,71.2,29.83,SSE,166,1.0,1.0,79,0.00,,BKN038,0.00,VWS V14.01,2013-06-06 16:28:00,
2013-06-06 12:33:00,78.7,72.8,29.83,SW,215,1.0,1.0,82,0.00,,BKN038,0.00,VWS V14.01,2013-06-06 16:33:00,
2013-06-06 12:38:00,78.3,71.3,29.83,SW,217,0.0,1.0,79,0.00,,BKN038,0.00,VWS V14.01,2013-06-06 16:38:00,
2013-06-06 12:43:00,77.7,71.0,29.83,North,360,0.0,1.0,80,0.00,,BKN038,0.00,VWS V14.01,2013-06-06 16:43:00,
2013-06-06 12:48:00,77.6,70.9,29.83,WSW,239,0.0,1.0,80,0.00,,BKN038,0.00,VWS V14.01,2013-06-06 16:48:00,
2013-06-06 12:53:00,77.6,70.9,29.83,South,191,1.0,2.0,80,0.00,,BKN038,0.00,VWS V14.01,2013-06-06 16:53:00,
2013-06-06 12:58:00,77.7,71.4,29.83,SW,224,0.0,1.0,81,0.00,,BKN038,0.00,VWS V14.01,2013-06-06 16:58:00,
2013-06-06 13:03:00,78.8,72.1,29.82,West,273,0.0,0.0,80,0.00,,BKN038,0.00,VWS V14.01,2013-06-06 17:03:00,
2013-06-06 13:08:00,79.3,72.6,29.82,WSW,252,0.0,3.0,80,0.00,,BKN040,0.00,VWS V14.01,2013-06-06 17:08:00,
2013-06-06 13:13:00,80.0,72.5,29.82,WSW,257,0.0,1.0,78,0.00,,BKN040,0.00,VWS V14.01,2013-06-06 17:13:00,
2013-06-06 13:18:00,80.6,71.9,29.82,SSW,207,0.0,2.0,75,0.00,,BKN040,0.00,VWS V14.01,2013-06-06 17:18:00,
2013-06-06 13:23:00,80.5,73.0,29.82,SW,226,1.0,2.0,78,0.00,,BKN040,0.00,VWS V14.01,2013-06-06 17:23:00,
2013-06-06 13:28:00,80.3,70.5,29.82,SW,226,0.0,1.0,72,0.00,,BKN040,0.00,VWS V14.01,2013-06-06 17:28:00,
2013-06-06 13:33:00,80.7,70.8,29.81,SW,222,0.0,1.0,72,0.00,,BKN040,0.00,VWS V14.01,2013-06-06 17:33:00,
2013-06-06 13:38:00,81.3,72.2,29.81,SSW,207,0.0,1.0,74,0.00,,BKN040,0.00,VWS V14.01,2013-06-06 17:38:00,
2013-06-06 13:43:00,81.2,72.5,29.81,SSW,208,0.0,0.0,75,0.00,,BKN040,0.00,VWS V14.01,2013-06-06 17:43:00,
2013-06-06 13:48:00,81.5,72.4,29.81,WSW,238,0.0,0.0,74,0.00,,BKN040,0.00,VWS V14.01,2013-06-06 17:48:00,
2013-06-06 13:53:00,81.7,72.6,29.81,SSW,212,0.0,0.0,74,0.00,,BKN040,0.00,VWS V14.01,2013-06-06 17:53:00,
2013-06-06 13:58:00,81.8,70.6,29.81,South,188,0.0,3.0,69,0.00,,BKN040,0.00,VWS V14.01,2013-06-06 17:58:00,
2013-06-06 14:03:00,80.9,71.4,29.81,SW,226,1.0,2.0,73,0.00,,BKN040,0.00,VWS V14.01,2013-06-06 18:03:00,
2013-06-06 14:08:00,80.0,71.4,29.81,SSW,200,0.0,1.0,75,0.00,,OVC050,0.00,VWS V14.01,2013-06-06 18:08:00,
2013-06-06 14:13:00,80.2,71.2,29.81,SSE,156,1.0,1.0,74,0.00,,OVC050,0.00,VWS V14.01,2013-06-06 18:13:00,
2013-06-06 14:18:00,80.4,71.4,29.80,SW,224,1.0,3.0,74,0.00,,OVC050,0.00,VWS V14.01,2013-06-06 18:18:00,
2013-06-06 14:23:00,80.1,70.7,29.80,SW,227,3.0,3.0,73,0.00,,OVC050,0.00,VWS V14.01,2013-06-06 18:23:00,
2013-06-06 14:28:00,79.7,70.3,29.80,WSW,253,1.0,2.0,73,0.00,,OVC050,0.00,VWS V14.01,2013-06-06 18:28:00,
2013-06-06 14:33:00,80.5,70.7,29.80,South,177,0.0,2.0,72,0.00,,OVC050,0.00,VWS V14.01,2013-06-06 18:33:00,
2013-06-06 14:38:00,81.2,72.5,29.80,WSW,239,0.0,0.0,75,0.00,,OVC050,0.00,VWS V14.01,2013-06-06 18:38:00,
2013-06-06 14:43:00,81.2,70.5,29.79,SSW,212,0.0,1.0,70,0.00,,OVC050,0.00,VWS V14.01,2013-06-06 18:43:00,
2013-06-06 14:48:00,81.7,71.0,29.79,SW,225,1.0,2.0,70,0.00,,OVC050,0.00,VWS V14.01,2013-06-06 18:48:00,
2013-06-06 14:53:00,81.9,69.9,29.79,SW,233,2.0,2.0,67,0.00,,OVC050,0.00,VWS V14.01,2013-06-06 18:53:00,
2013-06-06 14:58:00,81.6,70.0,29.79,SSW,203,1.0,1.0,68,0.00,,OVC050,0.00,VWS V14.01,2013-06-06 18:58:00,
2013-06-06 15:03:00,82.2,70.6,29.78,SSW,207,0.0,3.0,68,0.00,,OVC050,0.00,VWS V14.01,2013-06-06 19:03:00,
2013-06-06 15:08:00,81.9,71.6,29.78,SW,225,1.0,2.0,71,0.00,,BKN100,0.00,VWS V14.01,2013-06-06 19:08:00,
2013-06-06 15:13:00,81.5,71.2,29.78,SW,228,1.0,2.0,71,0.00,,BKN100,0.00,VWS V14.01,2013-06-06 19:13:00,
2013-06-06 15:18:00,81.4,71.9,29.78,WSW,246,0.0,2.0,73,0.00,,BKN100,0.00,VWS V14.01,2013-06-06 19:18:00,
2013-06-06 15:23:00,81.5,71.6,29.78,SW,228,0.0,3.0,72,0.00,,BKN100,0.00,VWS V14.01,2013-06-06 19:23:00,
2013-06-06 15:28:00,81.7,71.4,29.78,SSW,200,2.0,6.0,71,0.00,,BKN100,0.00,VWS V14.01,2013-06-06 19:28:00,
2013-06-06 15:33:00,81.5,71.6,29.78,ENE,71,1.0,2.0,72,0.00,,BKN100,0.00,VWS V14.01,2013-06-06 19:33:00,
2013-06-06 15:34:00,81.6,71.7,29.78,ENE,71,0.0,2.0,72,0.00,,BKN100,0.00,VWS V14.01,2013-06-06 19:34:00,
2013-06-06 15:39:00,82.0,71.7,29.78,NNE,20,0.0,3.0,71,0.00,,BKN100,0.00,VWS V14.01,2013-06-06 19:39:00,
2013-06-06 15:44:00,82.4,71.6,29.78,SE,142,0.0,1.0,70,0.00,,BKN100,0.00,VWS V14.01,2013-06-06 19:44:00,
2013-06-06 15:49:00,83.0,72.2,29.77,SW,222,2.0,2.0,70,0.00,,BKN100,0.00,VWS V14.01,2013-06-06 19:49:00,
2013-06-06 15:54:00,82.6,72.2,29.77,SW,219,0.0,3.0,71,0.00,,BKN100,0.00,VWS V14.01,2013-06-06 19:54:00,
2013-06-06 15:59:00,82.6,71.8,29.77,WSW,254,1.0,2.0,70,0.00,,BKN100,0.00,VWS V14.01,2013-06-06 19:59:00,
2013-06-06 16:04:00,82.6,71.4,29.77,SW,221,1.0,2.0,69,0.00,,OVC100,0.00,VWS V14.01,2013-06-06 20:04:00,
2013-06-06 16:09:00,81.9,71.6,29.77,SW,228,0.0,3.0,71,0.00,,OVC100,0.00,VWS V14.01,2013-06-06 20:09:00,
2013-06-06 16:14:00,81.3,71.4,29.77,SE,131,0.0,4.0,72,0.00,,OVC100,0.00,VWS V14.01,2013-06-06 20:14:00,
2013-06-06 16:19:00,81.0,71.5,29.77,SW,218,0.0,1.0,73,0.00,,OVC100,0.00,VWS V14.01,2013-06-06 20:19:00,
2013-06-06 16:24:00,81.3,71.4,29.77,SSW,211,1.0,1.0,72,0.00,,OVC100,0.00,VWS V14.01,2013-06-06 20:24:00,
2013-06-06 16:29:00,81.5,71.6,29.76,East,83,5.0,6.0,72,0.00,,OVC100,0.00,VWS V14.01,2013-06-06 20:29:00,
2013-06-06 16:34:00,80.0,71.4,29.76,SW,216,0.0,4.0,75,0.00,,OVC100,0.00,VWS V14.01,2013-06-06 20:34:00,
2013-06-06 16:39:00,79.6,71.4,29.76,SW,226,0.0,0.0,76,0.00,,OVC100,0.00,VWS V14.01,2013-06-06 20:39:00,
2013-06-06 16:44:00,79.6,70.6,29.76,WSW,250,0.0,4.0,74,0.00,,OVC100,0.00,VWS V14.01,2013-06-06 20:44:00,
2013-06-06 16:49:00,79.7,71.1,29.76,SSW,197,1.0,1.0,75,0.00,,OVC100,0.00,VWS V14.01,2013-06-06 20:49:00,
2013-06-06 16:54:00,79.9,71.7,29.76,SSW,195,0.0,2.0,76,0.00,,OVC100,0.00,VWS V14.01,2013-06-06 20:54:00,
2013-06-06 16:59:00,79.9,71.3,29.76,SW,225,0.0,3.0,75,0.00,,OVC100,0.00,VWS V14.01,2013-06-06 20:59:00,
2013-06-06 17:04:00,79.8,70.4,29.76,East,83,2.0,3.0,73,0.00,,OVC100,0.00,VWS V14.01,2013-06-06 21:04:00,
2013-06-06 17:09:00,79.4,70.4,29.76,ENE,77,1.0,2.0,74,0.00,,OVC100,0.00,VWS V14.01,2013-06-06 21:09:00,
2013-06-06 17:14:00,79.0,70.4,29.75,SW,229,0.0,1.0,75,0.00,,OVC100,0.00,VWS V14.01,2013-06-06 21:14:00,
2013-06-06 17:19:00,79.0,70.4,29.75,SSW,208,0.0,1.0,75,0.00,,OVC100,0.00,VWS V14.01,2013-06-06 21:19:00,
2013-06-06 17:24:00,78.8,69.8,29.76,South,177,1.0,2.0,74,0.00,,OVC100,0.00,VWS V14.01,2013-06-06 21:24:00,
2013-06-06 17:29:00,78.8,70.6,29.75,SW,236,0.0,1.0,76,0.00,,OVC100,0.00,VWS V14.01,2013-06-06 21:29:00,
2013-06-06 17:34:00,79.1,71.3,29.75,West,267,0.0,1.0,77,0.00,,OVC100,0.00,VWS V14.01,2013-06-06 21:34:00,
2013-06-06 17:39:00,79.8,70.4,29.75,SSE,154,1.0,2.0,73,0.00,,OVC100,0.00,VWS V14.01,2013-06-06 21:39:00,
2013-06-06 17:44:00,80.3,70.9,29.75,ESE,115,0.0,0.0,73,0.00,,OVC100,0.00,VWS V14.01,2013-06-06 21:44:00,
2013-06-06 17:49:00,80.7,70.4,29.74,ESE,110,0.0,2.0,71,0.00,,OVC100,0.00,VWS V14.01,2013-06-06 21:49:00,
2013-06-06 17:54:00,81.2,71.3,29.74,SW,230,2.0,3.0,72,0.00,,OVC100,0.00,VWS V14.01,2013-06-06 21:54:00,
2013-06-06 17:59:00,80.6,69.9,29.74,SE,146,0.0,4.0,70,0.00,,OVC100,0.00,VWS V14.01,2013-06-06 21:59:00,
2013-06-06 18:04:00,80.6,70.8,29.74,SSW,211,0.0,0.0,72,0.00,,OVC050,0.00,VWS V14.01,2013-06-06 22:04:00,
2013-06-06 18:09:00,80.6,70.8,29.74,South,170,0.0,3.0,72,0.00,,OVC050,0.00,VWS V14.01,2013-06-06 22:09:00,
2013-06-06 18:14:00,80.7,70.4,29.74,SW,224,0.0,1.0,71,0.00,,OVC050,0.00,VWS V14.01,2013-06-06 22:14:00,
2013-06-06 18:19:00,80.5,69.8,29.74,SW,229,0.0,2.0,70,0.00,,OVC050,0.00,VWS V14.01,2013-06-06 22:19:00,
2013-06-06 18:24:00,80.2,69.9,29.74,SW,221,0.0,2.0,71,0.00,,OVC050,0.00,VWS V14.01,2013-06-06 22:24:00,
2013-06-06 18:29:00,80.0,70.6,29.74,WSW,256,1.0,5.0,73,0.00,,OVC050,0.00,VWS V14.01,2013-06-06 22:29:00,
2013-06-06 18:34:00,79.6,70.2,29.74,SSW,192,1.0,1.0,73,0.00,,OVC050,0.00,VWS V14.01,2013-06-06 22:34:00,
2013-06-06 18:39:00,79.2,70.2,29.74,SW,217,2.0,2.0,74,0.00,,OVC050,0.00,VWS V14.01,2013-06-06 22:39:00,
2013-06-06 18:44:00,78.7,70.1,29.74,ESE,108,0.0,2.0,75,0.00,,OVC050,0.00,VWS V14.01,2013-06-06 22:44:00,
2013-06-06 18:49:00,78.4,69.8,29.74,SE,130,0.0,1.0,75,0.00,,OVC050,0.00,VWS V14.01,2013-06-06 22:49:00,
2013-06-06 18:54:00,78.2,69.6,29.74,SE,132,0.0,1.0,75,0.00,,OVC050,0.00,VWS V14.01,2013-06-06 22:54:00,
2013-06-06 18:59:00,77.7,69.2,29.74,ENE,73,0.0,1.0,75,0.00,,OVC050,0.00,VWS V14.01,2013-06-06 22:59:00,
2013-06-06 19:04:00,77.3,69.2,29.73,SE,131,0.0,1.0,76,0.00,,OVC050,0.00,VWS V14.01,2013-06-06 23:04:00,
2013-06-06 19:09:00,77.0,69.2,29.73,ESE,113,0.0,3.0,77,0.00,,OVC050,0.00,VWS V14.01,2013-06-06 23:09:00,
2013-06-06 19:14:00,76.6,69.2,29.73,East,81,0.0,2.0,78,0.00,,OVC050,0.00,VWS V14.01,2013-06-06 23:14:00,
2013-06-06 19:19:00,76.2,69.2,29.73,ESE,110,0.0,1.0,79,0.00,,OVC050,0.00,VWS V14.01,2013-06-06 23:19:00,
2013-06-06 19:24:00,75.9,68.9,29.73,East,79,0.0,2.0,79,0.00,,OVC050,0.00,VWS V14.01,2013-06-06 23:24:00,
2013-06-06 19:29:00,75.9,69.3,29.73,East,79,0.0,0.0,80,0.00,,OVC050,0.00,VWS V14.01,2013-06-06 23:29:00,
2013-06-06 19:34:00,75.8,69.2,29.73,East,79,0.0,0.0,80,0.00,,OVC050,0.00,VWS V14.01,2013-06-06 23:34:00,
2013-06-06 19:39:00,75.7,69.1,29.73,ESE,111,0.0,1.0,80,0.00,,OVC050,0.00,VWS V14.01,2013-06-06 23:39:00,
2013-06-06 19:44:00,75.5,69.3,29.73,SE,126,0.0,1.0,81,0.00,,OVC050,0.00,VWS V14.01,2013-06-06 23:44:00,
2013-06-06 19:49:00,75.3,69.1,29.73,ESE,117,0.0,1.0,81,0.00,,OVC050,0.00,VWS V14.01,2013-06-06 23:49:00,
2013-06-06 19:54:00,75.2,69.3,29.73,ESE,117,0.0,0.0,82,0.00,,OVC050,0.00,VWS V14.01,2013-06-06 23:54:00,
2013-06-06 19:59:00,75.1,69.2,29.73,ESE,117,0.0,0.0,82,0.00,,OVC050,0.00,VWS V14.01,2013-06-06 23:59:00,
2013-06-06 20:04:00,74.9,69.4,29.73,ESE,117,0.0,1.0,83,0.00,,OVC060,0.00,VWS V14.01,2013-06-07 00:04:00,
2013-06-06 20:09:00,74.6,69.4,29.73,ESE,109,0.0,1.0,84,0.00,,OVC060,0.00,VWS V14.01,2013-06-07 00:09:00,
2013-06-06 20:14:00,74.3,69.5,29.73,East,98,0.0,1.0,85,0.00,,OVC060,0.00,VWS V14.01,2013-06-07 00:14:00,
2013-06-06 20:19:00,74.2,69.4,29.73,East,98,0.0,0.0,85,0.00,,OVC060,0.00,VWS V14.01,2013-06-07 00:19:00,
2013-06-06 20:24:00,74.0,69.2,29.72,East,84,0.0,0.0,85,0.00,,OVC060,0.00,VWS V14.01,2013-06-07 00:24:00,
2013-06-06 20:29:00,73.8,69.3,29.73,East,84,0.0,1.0,86,0.00,,OVC060,0.00,VWS V14.01,2013-06-07 00:29:00,
2013-06-06 20:34:00,73.7,69.3,29.73,East,84,0.0,0.0,86,0.00,,OVC060,0.00,VWS V14.01,2013-06-07 00:34:00,
2013-06-06 20:39:00,73.5,69.1,29.73,ENE,69,0.0,0.0,86,0.00,,OVC060,0.00,VWS V14.01,2013-06-07 00:39:00,
2013-06-06 20:44:00,73.3,68.9,29.73,East,95,0.0,0.0,86,0.00,,OVC060,0.00,VWS V14.01,2013-06-07 00:44:00,
2013-06-06 20:49:00,73.0,68.2,29.73,East,91,0.0,4.0,85,0.00,,OVC060,0.00,VWS V14.01,2013-06-07 00:49:00,
2013-06-06 20:54:00,72.8,68.0,29.73,ESE,117,0.0,1.0,85,0.00,,OVC060,0.00,VWS V14.01,2013-06-07 00:54:00,
2013-06-06 20:59:00,72.6,67.8,29.73,East,87,0.0,4.0,85,0.00,,OVC060,0.00,VWS V14.01,2013-06-07 00:59:00,
2013-06-06 21:04:00,72.4,68.0,29.73,ESE,103,0.0,2.0,86,0.00,,OVC041,0.00,VWS V14.01,2013-06-07 01:04:00,
2013-06-06 21:09:00,72.2,67.8,29.73,East,91,0.0,0.0,86,0.00,,OVC041,0.00,VWS V14.01,2013-06-07 01:09:00,
2013-06-06 21:14:00,72.0,67.9,29.73,East,92,0.0,0.0,87,0.00,,OVC041,0.00,VWS V14.01,2013-06-07 01:14:00,
2013-06-06 21:19:00,71.9,67.8,29.73,East,91,0.0,1.0,87,0.00,,OVC041,0.00,VWS V14.01,2013-06-07 01:19:00,
2013-06-06 21:24:00,71.7,68.0,29.73,East,82,0.0,1.0,88,0.00,,OVC041,0.00,VWS V14.01,2013-06-07 01:24:00,
2013-06-06 21:29:00,71.6,67.9,29.73,East,82,0.0,1.0,88,0.00,,OVC041,0.00,VWS V14.01,2013-06-07 01:29:00,
2013-06-06 21:34:00,71.5,68.1,29.73,ENE,72,0.0,1.0,89,0.00,,OVC041,0.00,VWS V14.01,2013-06-07 01:34:00,
2013-06-06 21:39:00,71.4,68.0,29.73,East,97,1.0,2.0,89,0.00,,OVC041,0.00,VWS V14.01,2013-06-07 01:39:00,
2013-06-06 21:44:00,71.3,68.2,29.73,East,80,0.0,1.0,90,0.00,,OVC041,0.00,VWS V14.01,2013-06-07 01:44:00,
2013-06-06 21:49:00,71.2,68.1,29.73,East,80,0.0,0.0,90,0.00,,OVC041,0.00,VWS V14.01,2013-06-07 01:49:00,
2013-06-06 21:54:00,71.1,68.0,29.73,East,80,0.0,0.0,90,0.00,,OVC041,0.00,VWS V14.01,2013-06-07 01:54:00,
2013-06-06 21:59:00,71.1,68.0,29.73,East,80,0.0,0.0,90,0.00,,OVC041,0.00,VWS V14.01,2013-06-07 01:59:00,
2013-06-06 22:04:00,71.0,67.9,29.74,East,80,0.0,0.0,90,0.00,,BKN100,0.00,VWS V14.01,2013-06-07 02:04:00,
2013-06-06 22:09:00,70.9,68.2,29.74,East,80,0.0,0.0,91,0.00,,BKN100,0.00,VWS V14.01,2013-06-07 02:09:00,
2013-06-06 22:14:00,70.8,68.1,29.74,East,81,0.0,0.0,91,0.00,,BKN100,0.00,VWS V14.01,2013-06-07 02:14:00,
2013-06-06 22:19:00,70.7,67.9,29.74,East,80,0.0,0.0,91,0.00,,BKN100,0.00,VWS V14.01,2013-06-07 02:19:00,
2013-06-06 22:24:00,70.6,68.2,29.74,East,80,0.0,0.0,92,0.00,,BKN100,0.00,VWS V14.01,2013-06-07 02:24:00,
2013-06-06 22:29:00,70.5,68.1,29.74,East,80,0.0,0.0,92,0.00,,BKN100,0.00,VWS V14.01,2013-06-07 02:29:00,
2013-06-06 22:34:00,70.4,68.0,29.75,East,84,0.0,0.0,92,0.00,,BKN100,0.00,VWS V14.01,2013-06-07 02:34:00,
2013-06-06 22:39:00,70.4,68.0,29.75,ENE,77,0.0,0.0,92,0.00,,BKN100,0.00,VWS V14.01,2013-06-07 02:39:00,
2013-06-06 22:44:00,70.3,67.9,29.75,ENE,76,0.0,0.0,92,0.00,,BKN100,0.00,VWS V14.01,2013-06-07 02:44:00,
2013-06-06 22:49:00,70.2,67.8,29.75,ENE,76,0.0,1.0,92,0.00,,BKN100,0.00,VWS V14.01,2013-06-07 02:49:00,
2013-06-06 22:54:00,70.2,68.1,29.75,East,89,0.0,0.0,93,0.00,,BKN100,0.00,VWS V14.01,2013-06-07 02:54:00,
2013-06-06 22:59:00,70.1,68.0,29.75,East,95,0.0,0.0,93,0.00,,BKN100,0.00,VWS V14.01,2013-06-07 02:59:00,
2013-06-06 23:04:00,70.0,67.9,29.75,East,95,0.0,0.0,93,0.00,,BKN022,0.00,VWS V14.01,2013-06-07 03:04:00,
2013-06-06 23:09:00,70.0,67.9,29.75,East,95,0.0,0.0,93,0.00,,BKN022,0.00,VWS V14.01,2013-06-07 03:09:00,
2013-06-06 23:14:00,70.0,67.9,29.75,East,94,0.0,0.0,93,0.00,,BKN022,0.00,VWS V14.01,2013-06-07 03:14:00,
2013-06-06 23:19:00,69.9,67.8,29.75,East,95,0.0,0.0,93,0.00,,BKN022,0.00,VWS V14.01,2013-06-07 03:19:00,
2013-06-06 23:24:00,69.9,67.8,29.75,East,95,1.0,1.0,93,0.00,,BKN022,0.00,VWS V14.01,2013-06-07 03:24:00,
2013-06-06 23:29:00,69.9,67.8,29.75,East,95,0.0,0.0,93,0.00,,BKN022,0.00,VWS V14.01,2013-06-07 03:29:00,
2013-06-06 23:34:00,69.9,68.1,29.75,East,95,0.0,0.0,94,0.00,,BKN022,0.00,VWS V14.01,2013-06-07 03:34:00,
2013-06-06 23:39:00,69.9,68.1,29.75,East,93,0.0,0.0,94,0.00,,BKN022,0.00,VWS V14.01,2013-06-07 03:39:00,
2013-06-06 23:44:00,69.9,67.8,29.75,East,96,0.0,0.0,93,0.00,,BKN022,0.00,VWS V14.01,2013-06-07 03:44:00,
2013-06-06 23:49:00,69.8,67.7,29.75,East,96,0.0,0.0,93,0.00,,BKN022,0.00,VWS V14.01,2013-06-07 03:49:00,
2013-06-06 23:54:00,69.7,67.6,29.75,East,96,0.0,0.0,93,0.00,,BKN022,0.00,VWS V14.01,2013-06-07 03:54:00,
2013-06-06 23:59:00,69.6,67.2,29.75,East,94,0.0,0.0,92,0.00,,BKN022,0.00,VWS V14.01,2013-06-07 03:59:00,